Regional Weather Roundup
Issued by NWS Boston, MA

Home | Current Version | Previous Version | Text Only | Print | Product List | Glossary On
Versions: 1 2 3 4 5 6 7 8 9 10 11 12 13 14 15 16 17 18 19 20 21 22 23 24 25 26 27
000
ASUS41 KBOX 050510
RWRBOX

REGIONAL WEATHER ROUNDUP
NATIONAL WEATHER SERVICE TAUNTON MA
100 AM EDT THU MAY 05 2016

NOTE:  "FAIR" INDICATES FEW OR NO CLOUDS BELOW 12,000 FEET WITH NO
SIGNIFICANT WEATHER AND/OR OBSTRUCTIONS TO VISIBILITY.  THE FOLLOWING
OBSERVATION LOCATIONS DO NOT REPORT PRESENT WEATHER...PROVINCETOWN...
SMITHFIELD...BLOCK ISLAND...KEENE...AND OXFORD.

MAZALL-050600-
EASTERN MASSACHUSETTS

CITY           SKY/WX    TMP DP  RH WIND       PRES   REMARKS
BOSTON         CLOUDY    44  42  93 NE14      29.79F FOG
BEVERLY        CLOUDY    44  41  89 NE13      29.79F FOG
LAWRENCE       CLOUDY    43  41  93 NE15      29.81F FOG
BEDFORD        CLOUDY    43  42  97 NE9       29.78F FOG
BLUE HILL        N/A     41  41 100 NE15G25   29.74F
NORWOOD        CLOUDY    45  42  89 NE10      29.77S FOG
MARSHFIELD     MIX PCPN  45  43  93 NE13G24   29.78S
PLYMOUTH       LGT RAIN  44  43  96 N14G25    29.74F FOG
TAUNTON        CLOUDY    46  43  89 N8        29.74F FOG
NEW BEDFORD    CLOUDY    45  43  93 N8G21     29.72F FOG
$$

MAZALL-050600-
CAPE COD AND THE ISLANDS

CITY           SKY/WX    TMP DP  RH WIND       PRES   REMARKS
FALMOUTH       CLOUDY    45  43  93 NE15G26   29.71F
HYANNIS        CLOUDY    45  43  93 N12       29.68F
CHATHAM        CLOUDY    44  43  96 NE14G23   29.71F
PROVINCETOWN   CLOUDY    44  43  96 NE16      29.74S
NANTUCKET      CLOUDY    46  43  89 NE20G29   29.67S
MARTHAS VNYRD  CLOUDY    46  44  93 N10       29.70R
$$

MAZALL-050600-
CENTRAL AND WESTERN MASSACHUSETTS

CITY           SKY/WX    TMP DP  RH WIND       PRES   REMARKS
WORCESTER      FOG       39  38  96 NE14G23   29.76S VSB 1/2 WCI  31
FITCHBURG      CLOUDY    43  39  86 N7        29.81S
ORANGE         CLOUDY    42  39  89 N5        29.80S
SPRINGFIELD    NOT AVBL
WESTFIELD      CLOUDY    45  40  82 N8        29.78F
NORTH ADAMS    CLOUDY    47  39  74 E13G18    29.78S
PITTSFIELD     CLOUDY    44  39  82 NE5       29.76S
$$

RIZALL-050600-
RHODE ISLAND

CITY           SKY/WX    TMP DP  RH WIND       PRES   REMARKS
PROVIDENCE     CLOUDY    45  42  89 N12       29.75F FOG
NEWPORT        CLOUDY    45  43  93 N14       29.72S
BLOCK ISLAND   CLOUDY    45  44  97 NE14G24   29.72S
SMITHFIELD     CLOUDY    43  39  87 NE12G18   29.76R
WESTERLY       CLOUDY    46  42  86 N6        29.74R
$$

CTZALL-050600-
CONNECTICUT

CITY           SKY/WX    TMP DP  RH WIND       PRES   REMARKS
BRADLEY INTL   CLOUDY    45  40  82 NE14G20   29.78S
HARTFORD       CLOUDY    47  41  80 N12G17    29.78S
BRIDGEPORT     CLOUDY    48  42  80 N10       29.76S
DANBURY        CLOUDY    46  41  82 NE9       29.76S
GROTON         CLOUDY    45  45 100 N10       29.74R
NEW HAVEN      CLOUDY    46  42  86 N10       29.75S
CHESTER        CLOUDY    45  41  87 N10       29.75S
MERIDEN        CLOUDY    46  40  79 N8        29.77R
WILLIMANTIC    CLOUDY    46  40  79 N7        29.77S
OXFORD           N/A     45  37  76 NE12G21   29.75F
$$

MEZ002-015-021-024-NHZ003-005-008-011-012-014-VTZ005-008-050600-
NORTHERN NEW ENGLAND

CITY           SKY/WX    TMP DP  RH WIND       PRES   REMARKS
PORTLAND ME    LGT RAIN  43  41  93 NE8       29.85F
BANGOR ME      LGT RAIN  46  41  82 NE9       29.88F
CONCORD NH     LGT RAIN  42  39  89 N7        29.82F
MANCHESTER NH  CLOUDY    43  39  86 N7        29.80F
NASHUA NH      CLOUDY    42  41  96 VRB5      29.82F
PORTSMOUTH NH  MIX PCPN  43  41  92 NE14      29.81F FOG
JAFFREY NH     CLOUDY    40  38  93 VRB5      29.80S
KEENE NH       CLOUDY    45  39  81 N7        29.82S
BURLINGTON VT  CLOUDY    48  44  86 CALM      29.82S
MT. WASHINGTON LGTSLEET  27  27 100 NE15        N/A  VSB 1/16WCI  15
$$

NYZ052-076-050600-
EASTERN NEW YORK

CITY           SKY/WX    TMP DP  RH WIND       PRES   REMARKS
ALBANY         CLOUDY    48  44  86 N3        29.79F
NEW YORK CITY  CLOUDY    50  46  86 NE16      29.74S
$$

ANZALL-050600-
MARINE OBSERVATIONS

STATION/POSITION TIME  TEMP    WIND        PRES    VSBY  WAVE
                       AIR SEA DIR/SP/G                  HT/PER
                 (UTC) (F)     (DEG/KT/KT) (MB)    (MI)  (FT/S)
BOSTON BUOY      0450   45 47   30/ 19/ 23 1007.3F         6/ 7
BUZZARDS BAY     0400   45      30/ 27/ 29 1006.1R
NANTUCKET SOUND  0450   45 47   40/ 21/ 27 1004.6F         4/ 4
MASS BAY-STELLWA 0404   44 46                N/A    1 7/8  6/ 6
ISLE OF SHOALS   0400   43      30/ 19/ 22 1009.5R
S OF BLOCK IS    NOT AVBL
$$

......................KEY.........................
  SKY/WX - SKY CONDITION/PRESENT WEATHER
  TMP    - TEMPERATURE IN FAHRENHEIT
  DWPT   - DEWPOINT IN FAHRENHEIT
  RH     - RELATIVE HUMIDITY IN PERCENT
  WIND   - DIRECTION AND SPEED IN MPH
  PRES   - MEAN SEA LEVEL PRESSURE IN INCHES OF HG
  WCI    - WIND CHILL INDEX
  VSB    - VISIBILITY IN MILES
  HX     - HEAT INDEX
  TC     - TEMPERATURE IN CELSIUS
  VRB    - VARIABLE WIND DIRECTION
  N/A    - NOT AVAILABLE




USA.gov is the U.S. government's official web portal to all federal, state and local government web resources and services.